Weather reports worldwide

Advertisment
Murcia/San Javier, Spain (8433): temperature & dewpoint: 17.09.2018 03:00:00 - 23.09.2018 03:00:00 (CEST)Murcia/San Javier, Spain (8433): wind speed: 17.09.2018 03:00:00 - 23.09.2018 03:00:00 (CEST)Murcia/San Javier, Spain (8433): wind direction: 17.09.2018 03:00:00 - 23.09.2018 03:00:00 (CEST)Murcia/San Javier, Spain (8433): reduced air pressure: 17.09.2018 03:00:00 - 23.09.2018 03:00:00 (CEST)Murcia/San Javier, Spain (8433): visibility: 17.09.2018 03:00:00 - 23.09.2018 03:00:00 (CEST)
Date & Time tt [°C] td [°C] ff [km/h] ff [kn] dd ppp [hPa] vv [km]
23.09.2018 03:00:00 20,6 18,4 8 4 NW 1022,2 -
23.09.2018 02:00:00 21,2 19,1 9 5 NW 1022,3 -
23.09.2018 01:00:00 21,9 19,5 8 4 W 1022,5 -
23.09.2018 00:00:00 22,3 19,3 8 4 WSW 1022,5 -
22.09.2018 23:00:00 23,6 19,1 5 3 W 1022,6 20
22.09.2018 22:00:00 24,7 18,7 4 2 WSW 1022,3 -
22.09.2018 21:00:00 26,1 20,9 13 7 SSE 1021,8 -
22.09.2018 20:00:00 26,6 21,3 16 9 SSE 1021,3 50
22.09.2018 19:00:00 27,6 22,2 16 9 SE 1021,1 -
22.09.2018 18:00:00 28,5 22,3 16 9 SE 1021,3 -
22.09.2018 17:00:00 28,4 22,0 16 9 ESE 1021,5 30
22.09.2018 16:00:00 29,2 21,4 15 8 ESE 1022,0 -
22.09.2018 15:00:00 29,2 20,9 - - - 1022,5 -
22.09.2018 14:00:00 29,4 21,4 11 6 SE 1023,0 18
22.09.2018 13:00:00 29,3 22,0 9 5 ESE 1023,4 -
22.09.2018 12:00:00 28,5 21,8 9 5 SSE 1023,3 -
22.09.2018 11:00:00 27,8 21,6 8 4 SSE 1023,0 15
22.09.2018 10:00:00 26,6 21,1 4 2 S 1022,4 -
22.09.2018 09:00:00 22,9 19,3 4 2 WNW 1022,1 -
22.09.2018 08:00:00 20,5 18,4 8 4 NNW 1021,4 10
22.09.2018 07:00:00 20,6 18,5 9 5 WNW 1020,7 -
22.09.2018 06:00:00 20,8 18,6 8 4 WNW 1020,4 -
22.09.2018 05:00:00 21,0 18,9 8 4 WNW 1020,1 -
22.09.2018 04:00:00 21,3 19,0 9 5 WNW 1020,0 -
22.09.2018 03:00:00 21,8 19,4 9 5 WNW 1020,2 -
22.09.2018 02:00:00 22,5 19,9 0 0 N 1020,1 -
22.09.2018 01:00:00 22,8 20,1 8 4 W 1020,1 -
22.09.2018 00:00:00 23,8 20,3 8 4 SW 1019,8 -
21.09.2018 23:00:00 24,0 19,9 8 4 SW 1019,5 40
21.09.2018 22:00:00 24,7 19,1 13 7 SW 1018,9 -
21.09.2018 21:00:00 25,2 18,9 13 7 SSW 1018,1 -
21.09.2018 20:00:00 26,3 19,7 16 9 SW 1017,4 40
21.09.2018 19:00:00 28,7 20,4 16 9 SSW 1017,1 -
21.09.2018 18:00:00 29,8 19,9 24 13 SSW 1016,6 -
21.09.2018 17:00:00 30,9 20,1 24 13 SSW 1016,9 40
21.09.2018 16:00:00 32,0 19,7 18 10 SSW 1017,2 -
21.09.2018 15:00:00 31,9 19,7 16 9 S 1017,7 -
21.09.2018 14:00:00 30,3 22,3 9 5 SE 1018,3 20
21.09.2018 13:00:00 39,2 27,3 15 8 S 1018,6 -
21.09.2018 12:00:00 28,9 21,1 13 7 S 1019,0 -
21.09.2018 11:00:00 26,8 21,1 11 6 WSW 1019,0 16
21.09.2018 10:00:00 25,2 21,3 9 5 W 1018,5 -
21.09.2018 09:00:00 21,8 19,9 5 3 WNW 1018,4 -
21.09.2018 08:00:00 20,1 18,9 8 4 WNW 1017,8 15
21.09.2018 07:00:00 20,4 19,6 8 4 W 1017,5 -
21.09.2018 06:00:00 20,6 19,4 8 4 SW 1017,1 -
21.09.2018 05:00:00 20,7 19,5 5 3 W 1017,2 -
21.09.2018 04:00:00 21,2 20,0 8 4 W 1017,5 -
21.09.2018 03:00:00 21,8 20,4 4 2 WSW 1017,9 -
21.09.2018 02:00:00 22,2 20,5 8 4 W 1018,2 -
21.09.2018 01:00:00 22,7 20,6 0 0 N 1018,4 -
21.09.2018 00:00:00 23,4 20,7 0 0 N 1018,6 -
20.09.2018 23:00:00 23,9 20,8 8 4 W 1018,6 15
20.09.2018 22:00:00 24,6 21,3 8 4 S 1018,6 -
20.09.2018 21:00:00 25,1 21,2 9 5 SSE 1018,0 -
20.09.2018 20:00:00 25,7 21,1 11 6 SE 1017,7 28
20.09.2018 19:00:00 27,0 21,3 13 7 SE 1018,0 -
20.09.2018 18:00:00 27,7 21,5 15 8 SE 1018,1 -
20.09.2018 17:00:00 28,3 21,4 13 7 ESE 1018,6 30
20.09.2018 16:00:00 28,1 21,1 16 9 ESE 1019,0 -
20.09.2018 15:00:00 28,5 21,2 15 8 E 1019,4 -
20.09.2018 14:00:00 28,6 21,2 11 6 E 1020,1 30
20.09.2018 13:00:00 29,1 21,5 9 5 ESE 1020,6 -
20.09.2018 12:00:00 28,3 22,0 9 5 E 1020,8 -
20.09.2018 11:00:00 28,1 21,9 5 3 ENE 1020,8 25
20.09.2018 10:00:00 25,9 21,8 8 4 WNW 1020,6 -
20.09.2018 09:00:00 23,5 21,9 5 3 WNW 1020,4 -
20.09.2018 08:00:00 22,2 21,2 8 4 NW 1020,2 12
20.09.2018 07:00:00 22,6 21,5 8 4 NW 1019,9 -
20.09.2018 06:00:00 22,6 21,4 11 6 NW 1019,9 -
20.09.2018 05:00:00 22,8 21,6 8 4 NNW 1019,9 -
20.09.2018 04:00:00 22,9 21,5 9 5 NW 1020,3 -
20.09.2018 03:00:00 23,4 21,8 11 6 NNW 1020,5 -
20.09.2018 02:00:00 23,5 21,8 8 4 NW 1020,8 -
20.09.2018 01:00:00 24,3 22,0 8 4 NW 1021,1 -
20.09.2018 00:00:00 25,2 22,1 9 5 NE 1021,3 -
19.09.2018 23:00:00 25,7 22,4 4 2 E 1021,3 20
19.09.2018 22:00:00 25,6 22,3 8 4 ENE 1020,8 -
19.09.2018 21:00:00 25,8 22,3 8 4 E 1020,0 -
19.09.2018 20:00:00 26,0 22,3 13 7 ENE 1019,6 20
19.09.2018 19:00:00 26,6 22,2 15 8 E 1019,5 -
19.09.2018 18:00:00 27,5 22,0 16 9 E 1019,5 -
19.09.2018 17:00:00 28,8 21,4 15 8 E 1019,6 15
19.09.2018 16:00:00 28,3 21,6 15 8 E 1019,8 -
19.09.2018 15:00:00 28,5 22,0 15 8 E 1019,9 -
19.09.2018 14:00:00 28,1 21,9 15 8 E 1020,5 20
19.09.2018 13:00:00 28,9 22,2 13 7 E 1020,6 -
19.09.2018 12:00:00 28,6 22,3 9 5 E 1020,6 -
19.09.2018 11:00:00 27,7 22,3 8 4 NE 1020,3 20
19.09.2018 10:00:00 26,8 22,4 8 4 NNE 1019,5 -
19.09.2018 09:00:00 23,4 21,9 5 3 NW 1018,9 -
19.09.2018 08:00:00 21,6 20,8 8 4 WNW 1018,4 10
19.09.2018 07:00:00 21,9 20,9 8 4 NW 1018,2 -
19.09.2018 06:00:00 22,3 21,3 8 4 NW 1017,9 -
19.09.2018 05:00:00 22,4 21,4 9 5 NW 1017,9 -
19.09.2018 04:00:00 22,8 21,4 4 2 NW 1017,7 -
19.09.2018 03:00:00 23,2 21,6 8 4 NW 1018,2 -
19.09.2018 02:00:00 23,3 21,9 8 4 NW 1018,5 -
19.09.2018 01:00:00 24,0 22,1 8 4 WNW 1018,3 -
19.09.2018 00:00:00 25,1 22,0 9 5 NNE 1018,4 -
18.09.2018 23:00:00 25,2 22,3 9 5 NE 1018,0 10
18.09.2018 22:00:00 25,3 22,4 15 8 NE 1017,6 -
18.09.2018 21:00:00 25,4 22,3 13 7 NE 1016,7 -
18.09.2018 20:00:00 25,7 22,4 11 6 ENE 1016,0 15
18.09.2018 19:00:00 26,3 22,2 16 9 E 1015,8 -
18.09.2018 18:00:00 26,2 22,1 18 10 E 1015,4 -
18.09.2018 17:00:00 28,0 22,2 18 10 E 1015,2 15
18.09.2018 16:00:00 28,4 22,9 18 10 E 1015,4 -
18.09.2018 15:00:00 21,0 19,8 22 12 ENE 1015,6 -
18.09.2018 14:00:00 27,5 22,5 21 11 ENE 1016,1 15
18.09.2018 13:00:00 21,0 19,8 18 10 NE 1016,5 -
18.09.2018 12:00:00 21,0 19,8 18 10 NE 1016,8 -
18.09.2018 11:00:00 27,2 22,4 18 10 NNE 1016,6 15
18.09.2018 10:00:00 21,0 19,8 15 8 N 1016,0 -
18.09.2018 09:00:00 21,0 19,8 13 7 NNW 1015,5 -
18.09.2018 08:00:00 22,8 21,8 13 7 NNW 1015,1 9
18.09.2018 07:00:00 21,0 19,8 13 7 N 1014,6 -
18.09.2018 06:00:00 21,0 19,8 9 5 NNW 1014,8 -
18.09.2018 05:00:00 21,0 19,8 11 6 N 1014,7 -
18.09.2018 04:00:00 21,0 19,8 13 7 N 1014,6 -
18.09.2018 03:00:00 21,0 19,8 11 6 NNW 1015,1 -
18.09.2018 02:00:00 21,0 19,8 11 6 NNW 1015,5 -
18.09.2018 01:00:00 21,0 19,8 11 6 NE 1015,7 -
18.09.2018 00:00:00 21,0 19,8 11 6 ENE 1016,0 -
17.09.2018 23:00:00 25,0 22,5 13 7 ENE 1016,1 15
17.09.2018 22:00:00 21,0 19,8 16 9 ENE 1016,2 -
17.09.2018 21:00:00 21,0 19,8 16 9 E 1016,0 -
17.09.2018 20:00:00 26,5 22,4 18 10 ENE 1015,7 15
17.09.2018 19:00:00 21,0 19,8 18 10 ENE 1015,7 -
17.09.2018 18:00:00 21,0 19,8 26 14 ENE 1015,9 -
17.09.2018 17:00:00 21,0 19,8 22 12 NE 1016,4 15
17.09.2018 16:00:00 21,0 19,8 26 14 NE 1016,6 -
17.09.2018 15:00:00 21,0 19,8 24 13 NE 1017,5 -
17.09.2018 14:00:00 21,0 19,8 26 14 NE 1018,3 20
17.09.2018 13:00:00 - - - - - - -
17.09.2018 12:00:00 21,0 19,8 29 16 NE 1019,3 -
17.09.2018 11:00:00 21,0 19,8 26 14 NE 1019,3 20
17.09.2018 10:00:00 21,0 19,8 26 14 ENE 1019,0 -
17.09.2018 09:00:00 21,0 19,8 13 7 NNW 1018,2 -
17.09.2018 08:00:00 21,0 19,8 26 14 NE 1017,4 20
17.09.2018 07:00:00 21,0 19,8 15 8 N 1018,2 -
17.09.2018 06:00:00 21,0 19,8 15 8 NNW 1018,3 -
17.09.2018 05:00:00 21,0 19,8 15 8 NNW 1018,3 -
17.09.2018 04:00:00 21,0 19,8 22 12 NNE 1018,3 -
17.09.2018 03:00:00 21,0 19,8 16 9 NE 1019,3 -

tt = temperature
td = dewpoint
ff = wind speed
dd = wind direction
ppp = reduced air pressure
vv = visibility

Next stations